N575VH KFLL-KATL

Flight info

Callsign N575VH
Flight time N/A
Altitude 36000
Route FRSBE2 STYMY Q77 MJAMS/N0451F370 Q77 SHRKS/N0455F360 LAIRI LARZZ JJEDI3
Aircraft A320/M-SDE3FGHIRWY/LB1

Departure

Time 2026-05-06 18:19
Airport Fort Lauderdale Hollywood International Airport (KFLL)

Arrival

Time N/A
Airport Hartsfield Jackson Atlanta International Airport (KATL)
Time Latitude Longitude Altitude Speed Heading
2026-05-06 18:00 26.07300 -80.15675 20 ft 0 kts 130°
2026-05-06 18:14 26.07305 -80.15660 20 ft 4 kts 40°
2026-05-06 18:15 26.07337 -80.15674 20 ft 6 kts 335°
2026-05-06 18:15 26.07380 -80.15688 20 ft 7 kts 358°
2026-05-06 18:15 26.07435 -80.15710 20 ft 10 kts 320°
2026-05-06 18:15 26.07488 -80.15771 19 ft 12 kts 315°
2026-05-06 18:16 26.07548 -80.15839 22 ft 12 kts 310°
2026-05-06 18:16 26.07566 -80.15927 23 ft 12 kts 269°
2026-05-06 18:16 26.07566 -80.16023 24 ft 13 kts 270°
2026-05-06 18:16 26.07567 -80.16128 25 ft 14 kts 271°
2026-05-06 18:17 26.07568 -80.16241 26 ft 15 kts 271°
2026-05-06 18:17 26.07570 -80.16362 26 ft 17 kts 270°
2026-05-06 18:17 26.07572 -80.16498 24 ft 16 kts 274°
2026-05-06 18:17 26.07605 -80.16556 23 ft 9 kts 348°
2026-05-06 18:18 26.07677 -80.16556 23 ft 11 kts 24°
2026-05-06 18:18 26.07694 -80.16508 25 ft 0 kts 90°
2026-05-06 18:18 26.07694 -80.16335 27 ft 63 kts 90°
2026-05-06 18:18 26.07689 -80.15529 16 ft 140 kts 90°
2026-05-06 18:19 26.07680 -80.14317 481 ft 164 kts 90°
2026-05-06 18:19 26.07678 -80.12991 1220 ft 179 kts 90°
2026-05-06 18:19 26.07717 -80.11519 1877 ft 203 kts 79°
2026-05-06 18:19 26.08464 -80.10119 2398 ft 227 kts 39°
2026-05-06 18:20 26.10008 -80.09500 2732 ft 253 kts 360°
2026-05-06 18:20 26.11752 -80.10006 3339 ft 267 kts 335°
2026-05-06 18:20 26.13387 -80.11022 4178 ft 272 kts 327°
2026-05-06 18:20 26.14998 -80.12164 5060 ft 277 kts 326°
2026-05-06 18:21 26.16621 -80.13282 5928 ft 279 kts 329°
2026-05-06 18:21 26.18331 -80.14374 6832 ft 280 kts 331°
2026-05-06 18:21 26.20057 -80.15396 7674 ft 281 kts 333°
2026-05-06 18:21 26.21782 -80.16364 8491 ft 282 kts 334°
2026-05-06 18:22 26.23554 -80.17328 9280 ft 284 kts 335°
2026-05-06 18:22 26.25361 -80.18295 10062 ft 286 kts 335°
2026-05-06 18:22 26.27182 -80.19263 10398 ft 304 kts 336°
2026-05-06 18:22 26.29190 -80.20325 10538 ft 327 kts 336°
2026-05-06 18:23 26.31265 -80.21425 10886 ft 338 kts 335°
2026-05-06 18:23 26.33402 -80.22563 11465 ft 342 kts 336°
2026-05-06 18:23 26.35557 -80.23714 12087 ft 344 kts 336°
2026-05-06 18:23 26.37722 -80.24872 12714 ft 346 kts 336°
2026-05-06 18:24 26.39901 -80.26037 13329 ft 348 kts 336°
2026-05-06 18:24 26.42094 -80.27209 13935 ft 350 kts 336°
2026-05-06 18:24 26.44294 -80.28388 14472 ft 352 kts 336°
2026-05-06 18:24 26.46505 -80.29575 15004 ft 354 kts 336°
2026-05-06 18:25 26.48732 -80.30770 15553 ft 356 kts 336°
2026-05-06 18:25 26.50969 -80.31970 16074 ft 358 kts 336°
2026-05-06 18:25 26.53218 -80.33178 16583 ft 360 kts 335°
2026-05-06 18:25 26.55479 -80.34391 17109 ft 362 kts 335°
2026-05-06 18:26 26.57753 -80.35614 17619 ft 364 kts 335°
2026-05-06 18:26 26.60044 -80.36847 18122 ft 366 kts 334°
2026-05-06 18:26 26.62349 -80.38086 18602 ft 369 kts 334°
2026-05-06 18:26 26.64663 -80.39332 19027 ft 371 kts 334°
2026-05-06 18:27 26.66994 -80.40587 19470 ft 373 kts 334°
2026-05-06 18:27 26.69338 -80.41851 19905 ft 375 kts 334°
2026-05-06 18:27 26.71694 -80.43122 20346 ft 377 kts 334°
2026-05-06 18:27 26.74066 -80.44399 20776 ft 379 kts 334°
2026-05-06 18:28 26.76450 -80.45683 21213 ft 381 kts 334°
2026-05-06 18:28 26.78819 -80.46958 21634 ft 384 kts 334°
2026-05-06 18:28 26.81229 -80.48258 22062 ft 386 kts 333°
2026-05-06 18:28 26.83652 -80.49568 22475 ft 388 kts 333°
2026-05-06 18:29 26.86090 -80.50885 22900 ft 390 kts 333°
2026-05-06 18:29 26.88539 -80.52210 23343 ft 391 kts 333°
2026-05-06 18:29 26.90995 -80.53537 23743 ft 393 kts 333°
2026-05-06 18:29 26.93462 -80.54871 24085 ft 394 kts 332°
2026-05-06 18:30 26.95938 -80.56210 24443 ft 396 kts 332°
2026-05-06 18:30 26.98424 -80.57553 24788 ft 397 kts 332°
2026-05-06 18:30 27.00922 -80.58901 25132 ft 399 kts 332°
2026-05-06 18:30 27.03429 -80.60255 25468 ft 401 kts 332°
2026-05-06 18:31 27.05949 -80.61618 25788 ft 403 kts 332°
2026-05-06 18:31 27.08475 -80.62988 26118 ft 405 kts 332°
2026-05-06 18:31 27.11015 -80.64369 26443 ft 406 kts 332°
2026-05-06 18:31 27.13566 -80.65756 26766 ft 408 kts 332°
2026-05-06 18:32 27.16127 -80.67150 27076 ft 410 kts 332°
2026-05-06 18:32 27.18698 -80.68550 27436 ft 411 kts 331°
2026-05-06 18:32 27.21277 -80.69956 27806 ft 413 kts 331°
2026-05-06 18:32 27.23869 -80.71366 28130 ft 415 kts 331°
2026-05-06 18:33 27.26470 -80.72778 28464 ft 416 kts 331°
2026-05-06 18:33 27.29085 -80.74197 28797 ft 418 kts 331°
2026-05-06 18:33 27.31715 -80.75628 29126 ft 420 kts 331°
2026-05-06 18:33 27.34348 -80.77067 29461 ft 421 kts 331°
2026-05-06 18:34 27.36981 -80.78508 29925 ft 420 kts 331°
2026-05-06 18:34 27.39609 -80.79944 30365 ft 419 kts 331°
2026-05-06 18:34 27.42226 -80.81372 30770 ft 418 kts 330°
2026-05-06 18:34 27.44839 -80.82799 31168 ft 416 kts 330°
2026-05-06 18:35 27.47441 -80.84218 31591 ft 415 kts 330°
2026-05-06 18:35 27.50004 -80.85619 32008 ft 414 kts 330°
2026-05-06 18:35 27.52589 -80.87034 32433 ft 412 kts 330°
2026-05-06 18:35 27.55167 -80.88447 32862 ft 411 kts 330°
2026-05-06 18:36 27.57733 -80.89853 33290 ft 410 kts 330°
2026-05-06 18:36 27.60303 -80.91259 33722 ft 409 kts 330°
2026-05-06 18:36 27.62857 -80.92659 34112 ft 409 kts 330°
2026-05-06 18:36 27.65413 -80.94062 34446 ft 408 kts 330°
2026-05-06 18:37 27.67965 -80.95462 34797 ft 407 kts 329°
2026-05-06 18:37 27.69683 -80.96406 35020 ft 406 kts 329°
2026-05-06 18:37 27.73048 -80.98256 35461 ft 405 kts 329°
2026-05-06 18:37 27.75578 -80.99647 35788 ft 404 kts 329°
2026-05-06 18:38 27.78107 -81.01038 35961 ft 405 kts 329°
2026-05-06 18:38 27.80654 -81.02440 35979 ft 408 kts 329°
2026-05-06 18:38 27.85772 -81.05258 35978 ft 410 kts 329°
2026-05-06 18:39 27.90030 -81.07607 35981 ft 410 kts 329°
2026-05-06 18:40 27.97725 -81.11848 35983 ft 410 kts 329°
2026-05-06 18:40 28.02854 -81.14682 35992 ft 410 kts 329°
2026-05-06 18:41 28.08017 -81.17453 35999 ft 411 kts 330°
2026-05-06 18:41 28.13242 -81.20107 36032 ft 411 kts 331°
2026-05-06 18:42 28.18454 -81.22753 36037 ft 410 kts 330°
2026-05-06 18:42 28.23655 -81.25420 36036 ft 410 kts 330°
2026-05-06 18:43 28.28841 -81.28101 36037 ft 409 kts 330°
2026-05-06 18:43 28.34028 -81.30786 36012 ft 410 kts 330°
2026-05-06 18:44 28.39189 -81.33439 36028 ft 410 kts 330°
2026-05-06 18:44 28.44395 -81.36098 36024 ft 410 kts 330°
2026-05-06 18:45 28.49597 -81.38753 36031 ft 410 kts 330°
2026-05-06 18:45 28.54796 -81.41410 36029 ft 410 kts 330°
2026-05-06 18:46 28.59994 -81.44073 36028 ft 410 kts 330°
2026-05-06 18:46 28.65193 -81.46740 36025 ft 410 kts 330°
2026-05-06 18:47 28.70387 -81.49409 36042 ft 410 kts 330°
2026-05-06 18:47 28.75525 -81.52056 36029 ft 409 kts 330°
2026-05-06 18:48 28.80704 -81.54728 36024 ft 408 kts 330°
2026-05-06 18:48 28.85880 -81.57396 36020 ft 408 kts 330°
2026-05-06 18:49 28.91071 -81.60036 36017 ft 410 kts 333°
2026-05-06 18:49 28.96753 -81.61309 36015 ft 423 kts 348°
2026-05-06 18:50 29.02634 -81.61829 36027 ft 424 kts 348°
2026-05-06 18:50 29.08509 -81.62360 36021 ft 423 kts 348°
2026-05-06 18:51 29.14381 -81.62898 36013 ft 423 kts 348°
2026-05-06 18:51 29.20219 -81.63436 36010 ft 423 kts 348°
2026-05-06 18:52 29.26093 -81.63970 36011 ft 423 kts 348°
2026-05-06 18:52 29.31967 -81.64507 36022 ft 423 kts 347°
2026-05-06 18:53 29.37838 -81.65048 36019 ft 423 kts 347°
2026-05-06 18:53 29.43699 -81.65591 36012 ft 422 kts 347°
2026-05-06 18:54 29.49562 -81.66133 36004 ft 423 kts 347°
2026-05-06 18:54 29.55446 -81.66676 36001 ft 424 kts 347°
2026-05-06 18:55 29.61332 -81.67217 36020 ft 424 kts 347°
2026-05-06 18:55 29.67218 -81.67757 36017 ft 424 kts 347°
2026-05-06 18:56 29.73068 -81.68303 36014 ft 424 kts 347°
2026-05-06 18:56 29.78949 -81.68847 36013 ft 424 kts 347°
2026-05-06 18:57 29.84842 -81.69394 36007 ft 424 kts 347°
2026-05-06 18:57 29.90725 -81.69941 36021 ft 424 kts 347°
2026-05-06 18:58 29.96603 -81.70480 36010 ft 424 kts 347°
2026-05-06 18:58 30.02480 -81.71029 36013 ft 423 kts 347°
2026-05-06 18:59 30.08355 -81.71584 36015 ft 423 kts 347°
2026-05-06 18:59 30.14226 -81.72129 36050 ft 423 kts 346°
2026-05-06 19:00 30.20101 -81.72680 36032 ft 423 kts 346°
2026-05-06 19:00 30.25931 -81.73225 36030 ft 423 kts 346°
2026-05-06 19:01 30.31797 -81.73770 36019 ft 423 kts 346°
2026-05-06 19:01 30.37663 -81.74315 35997 ft 423 kts 346°
2026-05-06 19:02 30.43528 -81.74869 35985 ft 423 kts 346°
2026-05-06 19:02 30.49393 -81.75428 35984 ft 423 kts 346°
2026-05-06 19:03 30.55259 -81.75982 35984 ft 423 kts 346°
2026-05-06 19:03 30.61096 -81.76662 35984 ft 415 kts 339°
2026-05-06 19:04 30.66354 -81.78963 35984 ft 400 kts 326°
2026-05-06 19:04 30.71344 -81.81846 36000 ft 400 kts 326°
2026-05-06 19:05 30.76331 -81.84736 35992 ft 400 kts 326°
2026-05-06 19:05 30.81286 -81.87608 35990 ft 400 kts 326°
2026-05-06 19:06 30.86278 -81.90493 35985 ft 400 kts 326°
2026-05-06 19:06 30.91255 -81.93379 35984 ft 400 kts 326°
2026-05-06 19:07 30.96235 -81.96277 35981 ft 400 kts 326°
2026-05-06 19:07 31.01212 -81.99177 35994 ft 400 kts 326°
2026-05-06 19:08 31.06160 -82.02061 35988 ft 400 kts 326°
2026-05-06 19:08 31.11133 -82.04963 35986 ft 400 kts 326°
2026-05-06 19:09 31.16111 -82.07867 35986 ft 400 kts 326°
2026-05-06 19:09 31.21081 -82.10770 35989 ft 399 kts 326°
2026-05-06 19:10 31.26055 -82.13679 35987 ft 399 kts 326°
2026-05-06 19:10 31.31024 -82.16588 36010 ft 399 kts 326°
2026-05-06 19:11 31.35995 -82.19501 36006 ft 399 kts 326°
2026-05-06 19:11 31.40959 -82.22423 35992 ft 399 kts 326°
2026-05-06 19:12 31.45894 -82.25328 35986 ft 399 kts 326°
2026-05-06 19:12 31.50864 -82.28253 35984 ft 399 kts 326°
2026-05-06 19:13 31.55828 -82.31181 35986 ft 399 kts 326°
2026-05-06 19:13 31.60790 -82.34119 36000 ft 399 kts 326°
2026-05-06 19:14 31.65759 -82.37048 35992 ft 400 kts 326°
2026-05-06 19:14 31.70731 -82.39974 35992 ft 399 kts 326°
2026-05-06 19:15 31.75695 -82.42915 35983 ft 400 kts 325°
2026-05-06 19:15 31.80665 -82.45871 35983 ft 400 kts 325°
2026-05-06 19:16 31.85638 -82.48820 36013 ft 400 kts 325°
2026-05-06 19:16 31.90597 -82.51777 35986 ft 399 kts 324°
2026-05-06 19:17 31.95502 -82.54741 35982 ft 396 kts 321°
2026-05-06 19:17 31.99750 -82.58666 35980 ft 386 kts 313°
2026-05-06 19:18 32.03820 -82.62816 35978 ft 387 kts 313°
2026-05-06 19:18 32.07897 -82.66965 35977 ft 387 kts 313°
2026-05-06 19:19 32.11971 -82.71129 35978 ft 387 kts 313°
2026-05-06 19:19 32.14007 -82.73212 35861 ft 387 kts 313°
2026-05-06 19:19 32.16043 -82.75291 35622 ft 386 kts 313°
2026-05-06 19:19 32.18047 -82.77335 35388 ft 385 kts 313°
2026-05-06 19:20 32.20076 -82.79407 35153 ft 386 kts 313°
2026-05-06 19:20 32.22108 -82.81489 34910 ft 388 kts 313°
2026-05-06 19:20 32.24147 -82.83582 34694 ft 389 kts 313°
2026-05-06 19:20 32.26193 -82.85686 34460 ft 390 kts 313°
2026-05-06 19:21 32.28239 -82.87792 34229 ft 391 kts 313°
2026-05-06 19:21 32.30293 -82.89903 33993 ft 392 kts 313°
2026-05-06 19:21 32.32361 -82.92028 33728 ft 393 kts 313°
2026-05-06 19:21 32.34425 -82.94153 33470 ft 394 kts 313°
2026-05-06 19:22 32.36499 -82.96288 33214 ft 396 kts 313°
2026-05-06 19:22 32.38584 -82.98432 32961 ft 398 kts 314°
2026-05-06 19:22 32.40705 -83.00556 32711 ft 400 kts 314°
2026-05-06 19:22 32.42861 -83.02653 32493 ft 402 kts 315°
2026-05-06 19:23 32.45039 -83.04739 32246 ft 404 kts 315°
2026-05-06 19:23 32.47231 -83.06831 32001 ft 405 kts 315°
2026-05-06 19:23 32.49431 -83.08939 31758 ft 407 kts 315°
2026-05-06 19:23 32.51630 -83.11055 31517 ft 407 kts 315°
2026-05-06 19:24 32.53822 -83.13175 31278 ft 407 kts 315°
2026-05-06 19:24 32.56007 -83.15300 31041 ft 406 kts 315°
2026-05-06 19:24 32.58187 -83.17428 30805 ft 406 kts 315°
2026-05-06 19:24 32.60346 -83.19537 30576 ft 407 kts 315°
2026-05-06 19:25 32.62527 -83.21670 30344 ft 406 kts 315°
2026-05-06 19:25 32.64090 -83.23197 30181 ft 406 kts 315°
2026-05-06 19:25 32.66272 -83.25331 29894 ft 405 kts 315°
2026-05-06 19:25 32.68434 -83.27441 29292 ft 401 kts 315°
2026-05-06 19:26 32.70581 -83.29535 28680 ft 397 kts 315°
2026-05-06 19:26 32.72710 -83.31610 28079 ft 394 kts 315°
2026-05-06 19:26 32.74820 -83.33671 27473 ft 391 kts 315°
2026-05-06 19:26 32.76909 -83.35716 26882 ft 388 kts 315°
2026-05-06 19:27 32.78983 -83.37752 26293 ft 385 kts 315°
2026-05-06 19:27 32.81041 -83.39774 25723 ft 382 kts 315°
2026-05-06 19:27 32.83085 -83.41783 25159 ft 380 kts 315°
2026-05-06 19:27 32.85110 -83.43777 24618 ft 377 kts 315°
2026-05-06 19:28 32.87125 -83.45763 24086 ft 375 kts 315°
2026-05-06 19:28 32.89130 -83.47735 23547 ft 373 kts 314°
2026-05-06 19:28 32.91119 -83.49691 22983 ft 369 kts 315°
2026-05-06 19:28 32.93086 -83.51626 22486 ft 365 kts 314°
2026-05-06 19:29 32.95031 -83.53544 22004 ft 361 kts 314°
2026-05-06 19:29 32.96960 -83.55447 21506 ft 358 kts 314°
2026-05-06 19:29 32.98870 -83.57330 21018 ft 355 kts 314°